Flag Weather past 2 weeks in Cranbrook, British Columbia, Canada

Now
36 °F

Passing clouds.


Feels Like: 36 °F
Forecast: 40 / 51 °F
Wind: 2 mph from Southwest

Location: Cranbrook

Current Time: Oct 30, 2014 at 8:32:42 AM

Latest Report: Oct 30, 2014 at 8:00 AM


Visibility: 15 mi

Pressure: 30.30 "Hg

Humidity: 87%

Dew point: 32 °F

Location of CranbrookLocation

Historic Weather in Cranbrook — Graph

°F

Cranbrook temperature yesterday

Maximum temperature yesterday: 50 °F (at 3:00 PM)
Minimum temperature yesterday: 36 °F (at 12:00 AM)
Average temperature yesterday: 41 °F

Past Weeks' High & Low Weather Summary

 TemperatureHumidityPressure
High68 °F (Oct 20, 4:00 PM)100% (Oct 17, 6:00 AM)30.30 "Hg (Oct 17, 6:00 AM)
Low25 °F (Oct 28, 5:00 AM)35% (Oct 20, 5:00 PM)29.55 "Hg (Oct 26, 2:00 AM)
Average44 °F75%29.96 "Hg
* Reported Oct 15 7:00 AM — Oct 30 7:00 AM, Cranbrook, Weather by CustomWeather, © 2014

Note: Actual official high and low records may vary slightly from our data, if they occured in-between our weather recording intervals... More about our weather records

Advertising

Cranbrook weather history for previous 24 hours

 ConditionsComfort  
Time TempWeatherWind HumidityBarometerVisibility
7:00 AM
Oct 30
37 °FPassing clouds.2 mph93%30.30 "Hg25 mi
6:00 AM37 °FPassing clouds.3 mph93%30.29 "Hg25 mi
5:00 AM36 °FPassing clouds.No wind93%30.30 "Hg25 mi
4:00 AM39 °FPassing clouds.2 mph87%30.29 "Hg25 mi
3:00 AM41 °FOvercast.2 mph81%30.28 "Hg25 mi
2:00 AM41 °FOvercast.3 mph87%30.29 "Hg25 mi
1:00 AM39 °FPassing clouds.3 mph87%30.28 "Hg25 mi
12:00 AM41 °FPartly cloudy.5 mph93%30.27 "Hg25 mi
11:00 PM
Oct 29
43 °FPartly cloudy.No wind81%30.27 "Hg25 mi
10:00 PM43 °FMostly cloudy.2 mph81%30.26 "Hg25 mi
9:00 PM46 °FPassing clouds.8 mph76%30.24 "Hg25 mi
8:00 PM46 °FPassing clouds.8 mph76%30.24 "Hg25 mi
7:00 PM46 °FPartly sunny.5 mph76%30.22 "Hg25 mi
6:00 PM48 °FBroken clouds.2 mph76%30.20 "Hg25 mi
5:00 PM48 °FBroken clouds.2 mph76%30.20 "Hg25 mi
3:00 PM50 °FBroken clouds.6 mph71%30.17 "Hg25 mi
2:00 PM45 °FPartly sunny.3 mph76%30.18 "Hg25 mi
1:00 PM45 °FBroken clouds.2 mph76%30.18 "Hg20 mi
12:00 PM41 °FScattered clouds.No wind87%30.16 "Hg20 mi
11:00 AM41 °FBroken clouds.2 mph81%30.15 "Hg20 mi
10:00 AM39 °FPartly sunny.2 mph87%30.14 "Hg20 mi
9:00 AM37 °FPassing clouds.2 mph87%30.12 "Hg20 mi
8:00 AM37 °FOvercast.2 mph87%30.10 "Hg15 mi
Weather by CustomWeather, © 2014

See weather overviewHow to use our weather pages